| time (UTC) | temp F | wind direction | speed knots | gust knots | rain 1hr in | rain 24hr in | rain mn in | humidity % | barometer mb |
| 20260502163025 | 59 | 141 | 1.7 | 7.0 | 0.00 | 0.00 | 0.00 | 59 | 1010.5 |
| 20260502161523 | 58 | 44 | 0.9 | 5.2 | 0.00 | 0.00 | 0.00 | 61 | 1010.6 |
| 20260502151515 | 56 | 331 | 0.0 | 1.7 | 0.00 | 0.00 | 0.00 | 71 | 1011.2 |
| 20260502123051 | 51 | 360 | 0.0 | 2.6 | 0.00 | 0.00 | 0.00 | 79 | 1011.9 |
| 20260502121552 | 51 | 268 | 0.9 | 3.5 | 0.00 | 0.00 | 0.00 | 80 | 1011.8 |
| 20260502114543 | 48 | 80 | 0.0 | 1.7 | 0.00 | 0.00 | 0.00 | 83 | 1011.5 |
| 20260502113037 | 47 | 80 | 0.0 | 1.7 | 0.00 | 0.00 | 0.00 | 84 | 1011.4 |
| 20260502111533 | 47 | 80 | 0.0 | 0.9 | 0.00 | 0.00 | 0.00 | 85 | 1011.6 |
| 20260502110029 | 46 | 80 | 0.0 | 0.9 | 0.00 | 0.00 | 0.00 | 86 | 1011.4 |
| 20260502104527 | 45 | 80 | 0.0 | 0.9 | 0.00 | 0.00 | 0.00 | 87 | 1011.3 |
| 20260502103029 | 44 | 80 | 0.0 | 1.7 | 0.00 | 0.00 | 0.00 | 87 | 1011.2 |
| 20260502101535 | 43 | 79 | 0.0 | 3.5 | 0.00 | 0.00 | 0.00 | 88 | 1011.3 |
| 20260502091517 | 42 | 190 | 0.0 | 0.0 | 0.00 | 0.00 | 0.00 | 88 | 1011.1 |
| 20260502071509 | 43 | 190 | 0.0 | 0.0 | 0.00 | 0.00 | 0.00 | 84 | 1011.0 |
| 20260502070008 | 43 | 190 | 0.0 | 0.0 | 0.00 | 0.00 | 0.00 | 84 | 1011.0 |
| 20260502064508 | 43 | 190 | 0.0 | 0.0 | 0.00 | 0.00 | 0.00 | 85 | 1011.1 |
| 20260502063017 | 42 | 190 | 0.0 | 0.0 | 0.00 | 0.00 | 0.00 | 84 | 1011.2 |
| 20260502061504 | 42 | 190 | 0.0 | 0.0 | 0.00 | 0.00 | 0.00 | 84 | 1011.2 |
| 20260502060003 | 42 | 190 | 0.0 | 0.0 | 0.00 | 0.00 | 0.00 | 82 | 1011.2 |
| 20260502054501 | 43 | 190 | 0.0 | 0.0 | 0.00 | 0.00 | 0.00 | 81 | 1011.3 |
| 20260502053127 | 43 | 190 | 0.0 | 0.0 | 0.00 | 0.00 | 0.00 | 80 | 1011.3 |
| 20260502051614 | 43 | 190 | 0.0 | 0.0 | 0.00 | 0.00 | 0.00 | 80 | 1011.3 |
| 20260502050056 | 44 | 190 | 0.0 | 0.0 | 0.00 | 0.00 | 0.00 | 80 | 1011.3 |
| 20260502044555 | 44 | 190 | 0.0 | 0.0 | 0.00 | 0.00 | 0.00 | 79 | 1011.4 |
| 20260502043100 | 44 | 190 | 0.0 | 0.0 | 0.00 | 0.00 | 0.00 | 78 | 1011.5 |
| 20260502041616 | 44 | 190 | 0.0 | 0.0 | 0.00 | 0.00 | 0.00 | 78 | 1011.4 |
| 20260502040048 | 45 | 190 | 0.0 | 0.0 | 0.00 | 0.00 | 0.00 | 77 | 1011.4 |
| 20260502034547 | 45 | 190 | 0.0 | 0.0 | 0.00 | 0.00 | 0.00 | 74 | 1011.3 |
| 20260502033059 | 46 | 190 | 0.0 | 0.0 | 0.00 | 0.00 | 0.00 | 73 | 1011.3 |
| 20260502031543 | 46 | 190 | 0.0 | 0.0 | 0.00 | 0.00 | 0.00 | 72 | 1011.2 |
| 20260502030042 | 46 | 190 | 0.0 | 0.0 | 0.00 | 0.00 | 0.00 | 71 | 1011.1 |
| 20260502024541 | 46 | 190 | 0.0 | 0.0 | 0.00 | 0.00 | 0.00 | 72 | 1011.1 |
| 20260502023042 | 46 | 190 | 0.0 | 0.0 | 0.00 | 0.00 | 0.00 | 74 | 1011.1 |
| 20260502021539 | 46 | 190 | 0.0 | 0.0 | 0.00 | 0.00 | 0.00 | 71 | 1010.9 |
| 20260502020038 | 47 | 190 | 0.0 | 0.0 | 0.00 | 0.00 | 0.00 | 71 | 1010.9 |
| 20260502014535 | 48 | 313 | 0.0 | 0.9 | 0.00 | 0.00 | 0.00 | 68 | 1010.8 |
| 20260502013035 | 49 | 313 | 0.0 | 0.0 | 0.00 | 0.00 | 0.00 | 69 | 1010.8 |
| 20260502011533 | 50 | 313 | 0.0 | 0.0 | 0.00 | 0.00 | 0.00 | 65 | 1010.7 |
| 20260502010031 | 51 | 313 | 0.0 | 0.0 | 0.00 | 0.00 | 0.00 | 61 | 1010.5 |
| 20260502004529 | 52 | 313 | 0.0 | 0.0 | 0.00 | 0.00 | 0.00 | 56 | 1010.2 |
| 20260502003029 | 54 | 313 | 0.0 | 0.0 | 0.00 | 0.00 | 0.00 | 52 | 1010.1 |
| 20260502001526 | 55 | 313 | 0.0 | 0.0 | 0.00 | 0.00 | 0.00 | 53 | 1009.9 |
| 20260502000026 | 57 | 313 | 0.0 | 0.0 | 0.00 | 0.00 | 0.00 | 46 | 1009.5 |
| 20260501234525 | 58 | 313 | 0.0 | 1.7 | 0.00 | 0.00 | 0.00 | 45 | 1009.3 |
| 20260501233024 | 59 | 330 | 0.9 | 3.5 | 0.00 | 0.00 | 0.00 | 43 | 1009.1 |
| 20260501231523 | 60 | 314 | 0.0 | 3.5 | 0.00 | 0.00 | 0.00 | 41 | 1008.8 |
| 20260501230023 | 61 | 310 | 0.0 | 3.5 | 0.00 | 0.00 | 0.00 | 38 | 1008.7 |
| 20260501224522 | 61 | 325 | 1.7 | 7.0 | 0.00 | 0.00 | 0.00 | 36 | 1008.5 |
| 20260501223030 | 61 | 315 | 3.5 | 9.6 | 0.00 | 0.00 | 0.00 | 35 | 1008.3 |
| 20260501221524 | 62 | 295 | 2.6 | 7.8 | 0.00 | 0.00 | 0.00 | 36 | 1008.3 |
| 20260501220021 | 62 | 314 | 3.5 | 8.7 | 0.00 | 0.00 | 0.00 | 34 | 1008.3 |
| 20260501214522 | 62 | 355 | 1.7 | 7.8 | 0.00 | 0.00 | 0.00 | 37 | 1008.2 |
| 20260501213019 | 62 | 304 | 4.3 | 9.6 | 0.00 | 0.00 | 0.00 | 33 | 1008.1 |
| 20260501211518 | 62 | 299 | 2.6 | 12.2 | 0.00 | 0.00 | 0.00 | 35 | 1008.0 |
| 20260501210019 | 62 | 304 | 1.7 | 7.0 | 0.00 | 0.00 | 0.00 | 34 | 1008.0 |
| 20260501204523 | 62 | 320 | 2.6 | 7.8 | 0.00 | 0.00 | 0.00 | 36 | 1007.9 |
| 20260501203017 | 62 | 294 | 2.6 | 9.6 | 0.00 | 0.00 | 0.00 | 35 | 1007.9 |
| 20260501201515 | 62 | 296 | 2.6 | 10.4 | 0.00 | 0.00 | 0.00 | 34 | 1007.9 |
| 20260501200013 | 62 | 296 | 1.7 | 17.4 | 0.00 | 0.00 | 0.00 | 37 | 1007.9 |
| 20260501194512 | 62 | 335 | 5.2 | 11.3 | 0.00 | 0.00 | 0.00 | 36 | 1008.0 |
| 20260501193010 | 62 | 327 | 1.7 | 8.7 | 0.00 | 0.00 | 0.00 | 40 | 1008.1 |
| 20260501191510 | 61 | 301 | 2.6 | 7.8 | 0.00 | 0.00 | 0.00 | 41 | 1008.3 |
| 20260501190012 | 61 | 348 | 1.7 | 9.6 | 0.00 | 0.00 | 0.00 | 43 | 1008.4 |
| 20260501184509 | 62 | 314 | 3.5 | 12.2 | 0.00 | 0.00 | 0.00 | 41 | 1008.3 |
| 20260501183007 | 61 | 278 | 1.7 | 10.4 | 0.00 | 0.00 | 0.00 | 44 | 1008.4 |
| 20260501181504 | 61 | 252 | 0.9 | 9.6 | 0.00 | 0.00 | 0.00 | 45 | 1008.4 |
| 20260501180003 | 60 | 294 | 1.7 | 5.2 | 0.00 | 0.00 | 0.00 | 47 | 1008.7 |
| 20260501174611 | 59 | 286 | 0.9 | 11.3 | 0.00 | 0.00 | 0.00 | 47 | 1008.9 |
| 20260501173057 | 59 | 331 | 1.7 | 8.7 | 0.00 | 0.00 | 0.00 | 46 | 1008.8 |
| 20260501171555 | 58 | 349 | 1.7 | 8.7 | 0.00 | 0.00 | 0.00 | 52 | 1009.0 |
| 20260501170054 | 57 | 306 | 2.6 | 12.2 | 0.00 | 0.00 | 0.00 | 51 | 1009.1 |
| 20260501164554 | 57 | 300 | 2.6 | 12.2 | 0.00 | 0.00 | 0.00 | 49 | 1009.1 |